Flag Weather past 2 weeks in Shiprock, New Mexico, U.S.A.

Now
44 °F

Clear.


Feels Like: 39 °F
Forecast: 43 / 71 °F
Wind: 10 mph from East

Location: Four Corners Regional Airport

Current Time: Oct 31, 2014 at 2:49:53 AM

Latest Report: Oct 31, 2014 at 1:53 AM


Visibility: 10 mi

Pressure: 30.19 "Hg

Humidity: 41%

Dew point: 22 °F

Location of ShiprockLocation

Historic Weather in Shiprock — Graph

°F

Shiprock temperature yesterday

Maximum temperature yesterday: 69 °F (at 4:53 PM)
Minimum temperature yesterday: 32 °F (at 3:53 AM)
Average temperature yesterday: 48 °F

Past Weeks' High & Low Weather Summary

 TemperatureHumidityPressure
High78 °F (Oct 25, 3:53 PM)90% (Oct 20, 3:53 AM)30.35 "Hg (Oct 20, 3:53 AM)
Low30 °F (Oct 29, 6:53 AM)12% (Oct 29, 2:53 PM)29.76 "Hg (Oct 27, 12:53 AM)
Average55 °F45%30.08 "Hg
* Reported Oct 16 12:53 AM — Oct 31 12:53 AM, Shiprock, Weather by CustomWeather, © 2014

Note: Actual official high and low records may vary slightly from our data, if they occured in-between our weather recording intervals... More about our weather records

Advertising

Shiprock weather history for previous 24 hours

 ConditionsComfort  
Time TempWeatherWind HumidityBarometerVisibility
12:53 AM
Oct 31
43 °FClear.9 mph43%30.20 "Hg10 mi
11:53 PM
Oct 30
44 °FClear.12 mph41%30.21 "Hg10 mi
10:53 PM46 °FClear.12 mph37%30.23 "Hg10 mi
9:53 PM44 °FClear.3 mph37%30.24 "Hg10 mi
8:53 PM46 °FClear.8 mph35%30.25 "Hg10 mi
7:53 PM50 °FClear.No wind30%30.24 "Hg10 mi
6:53 PM61 °FSunny.No wind20%30.19 "Hg10 mi
5:53 PM66 °FSunny.No wind17%30.17 "Hg10 mi
4:53 PM69 °FSunny.No wind15%30.17 "Hg10 mi
3:53 PM68 °FSunny.5 mph15%30.19 "Hg10 mi
2:53 PM67 °FSunny.7 mph15%30.20 "Hg10 mi
1:53 PM65 °FSunny.No wind16%30.23 "Hg10 mi
12:53 PM61 °FSunny.No wind17%30.27 "Hg10 mi
11:53 AM56 °FSunny.7 mph22%30.29 "Hg10 mi
10:53 AM51 °FSunny.8 mph29%30.31 "Hg10 mi
9:53 AM43 °FSunny.7 mph40%30.34 "Hg10 mi
8:53 AM38 °FSunny.8 mph46%30.35 "Hg10 mi
7:53 AM33 °FClear.7 mph52%30.32 "Hg10 mi
6:53 AM33 °FClear.7 mph52%30.29 "Hg10 mi
5:53 AM33 °FClear.8 mph54%30.27 "Hg10 mi
4:53 AM34 °FClear.7 mph52%30.25 "Hg10 mi
3:53 AM32 °FClear.7 mph50%30.26 "Hg10 mi
2:53 AM35 °FClear.8 mph48%30.25 "Hg10 mi
Weather by CustomWeather, © 2014

See weather overviewHow to use our weather pages